{"data":{"norad_id":66092,"intl_designator":"2025-236G","name":"STARLINK-35527","alt_names":[],"object_type":"PAYLOAD","status":"ACTIVE","operator":null,"country":"US","launch_date":"2025-10-19","launch_site_code":"AFWTR","launch_vehicle":null,"mission":null,"orbit_class":"UNKNOWN","rcs_meters":null,"size_class":null,"mass_kg":null,"dimensions":null,"purposes":["comms"],"wikipedia_slug":null,"has_3d_model":false,"image_url":null,"decayed_at":null,"tle_current":{"epoch":"2026-09-20T05:58:46.979040Z","epoch_age_seconds":124713,"freshness":"FRESH","line1":"1 66092U 25236G   26263.24915485  .00014382  00000+0  43583-3 0  9991","line2":"2 66092  53.1570 276.5386 0000822  75.6351 284.4743 15.34410115 52781","mean_motion":15.34410115,"eccentricity":8.22e-5,"inclination_deg":53.157,"raan_deg":276.5386,"arg_perigee_deg":75.6351,"mean_anomaly_deg":284.4743,"bstar":0.00043583,"rev_number":5278,"period_min":93.847139426606,"perigee_km":462.11086186411,"apogee_km":463.23549105712,"semimajor_km":6840.8101764606,"source":"CELESTRAK","updated_at":"2026-09-21T09:00:35.801359Z"}}}